Location: Pedholt
(56.0260°N, 10.2097°E)
Time: 07:00:09
(UTC+00:00)

Cosmos 2242 Rocket - Pass Details

Date: 14 July 2020
Orbit: 618 x 651 km, 82.5° (Epoch: 07 August)

Event Time Altitude Azimuth Distance (km) Brightness Sun altitude
Rises 00:00:34 0° 348° (NNW) 2,987 8.5 -12.0°
Reaches altitude 10° 00:02:51 10° 349° (N) 2,069 7.5 -11.9°
Maximum altitude 00:07:28 80° 78° (ENE) 666 3.7 -11.8°
Enters shadow 00:11:24 14° 164° (SSE) 1,801 5.4 -11.7°
